owner,sensor,date,latitude,longitude,vertical_datum,sea_water_temperature,qcFlag
Anadarko,ioos:station:wmo:42377:2,2021-11-01T00:15:00Z,27.2925,-90.9681,21.3,27.8,11111222
Anadarko,ioos:station:wmo:42377:2,2021-11-01T00:35:00Z,27.2925,-90.9681,21.3,27.9,11111222
Anadarko,ioos:station:wmo:42377:2,2021-11-01T00:55:00Z,27.2925,-90.9681,21.3,27.4,11111222
Anadarko,ioos:station:wmo:42377:2,2021-11-01T01:15:00Z,27.2925,-90.9681,21.3,27.7,11111222
Anadarko,ioos:station:wmo:42377:2,2021-11-01T01:35:00Z,27.2925,-90.9681,21.3,28.0,11111222
Anadarko,ioos:station:wmo:42377:2,2021-11-01T01:55:00Z,27.2925,-90.9681,21.3,27.8,11111222
Anadarko,ioos:station:wmo:42377:2,2021-11-01T02:15:00Z,27.2925,-90.9681,21.3,27.8,11111222
Anadarko,ioos:station:wmo:42377:2,2021-11-01T02:35:00Z,27.2925,-90.9681,21.3,27.3,11111222
Anadarko,ioos:station:wmo:42377:2,2021-11-01T02:55:00Z,27.2925,-90.9681,21.3,28.0,11111222
Anadarko,ioos:station:wmo:42377:2,2021-11-01T03:15:00Z,27.2925,-90.9681,21.3,27.9,11111222
Anadarko,ioos:station:wmo:42377:2,2021-11-01T03:35:00Z,27.2925,-90.9681,21.3,27.8,11111222
Anadarko,ioos:station:wmo:42377:2,2021-11-01T03:55:00Z,27.2925,-90.9681,21.3,27.5,11111222
Anadarko,ioos:station:wmo:42377:2,2021-11-01T04:15:00Z,27.2925,-90.9681,21.3,27.4,11111222
Anadarko,ioos:station:wmo:42377:2,2021-11-01T04:35:00Z,27.2925,-90.9681,21.3,27.7,11111222
Anadarko,ioos:station:wmo:42377:2,2021-11-01T04:55:00Z,27.2925,-90.9681,21.3,27.3,11111222
Anadarko,ioos:station:wmo:42377:2,2021-11-01T05:15:00Z,27.2925,-90.9681,21.3,27.8,11111222
Anadarko,ioos:station:wmo:42377:2,2021-11-01T05:35:00Z,27.2925,-90.9681,21.3,27.5,11111222
Anadarko,ioos:station:wmo:42377:2,2021-11-01T05:55:00Z,27.2925,-90.9681,21.3,27.2,11111222
Anadarko,ioos:station:wmo:42377:2,2021-11-01T06:15:00Z,27.2925,-90.9681,21.3,27.5,11111222
Anadarko,ioos:station:wmo:42377:2,2021-11-01T06:35:00Z,27.2925,-90.9681,21.3,27.7,11111222
Anadarko,ioos:station:wmo:42377:2,2021-11-01T06:55:00Z,27.2925,-90.9681,21.3,27.2,11111222
Anadarko,ioos:station:wmo:42377:2,2021-11-01T07:15:00Z,27.2925,-90.9681,21.3,27.6,11111222
Anadarko,ioos:station:wmo:42377:2,2021-11-01T07:35:00Z,27.2925,-90.9681,21.3,27.5,11111222
Anadarko,ioos:station:wmo:42377:2,2021-11-01T07:55:00Z,27.2925,-90.9681,21.3,27.2,11111222
Anadarko,ioos:station:wmo:42377:2,2021-11-01T08:15:00Z,27.2925,-90.9681,21.3,27.2,11111222
Anadarko,ioos:station:wmo:42377:2,2021-11-01T08:35:00Z,27.2925,-90.9681,21.3,27.1,11111222
Anadarko,ioos:station:wmo:42377:2,2021-11-01T08:55:00Z,27.2925,-90.9681,21.3,27.8,11111222
Anadarko,ioos:station:wmo:42377:2,2021-11-01T09:15:00Z,27.2925,-90.9681,21.3,27.5,11111222
Anadarko,ioos:station:wmo:42377:2,2021-11-01T09:35:00Z,27.2925,-90.9681,21.3,27.5,11111222
Anadarko,ioos:station:wmo:42377:2,2021-11-01T09:55:00Z,27.2925,-90.9681,21.3,27.9,11111222
Anadarko,ioos:station:wmo:42377:2,2021-11-01T10:15:00Z,27.2925,-90.9681,21.3,27.4,11111222
Anadarko,ioos:station:wmo:42377:2,2021-11-01T10:35:00Z,27.2925,-90.9681,21.3,27.8,11111222
Anadarko,ioos:station:wmo:42377:2,2021-11-01T10:55:00Z,27.2925,-90.9681,21.3,27.4,11111222
Anadarko,ioos:station:wmo:42377:2,2021-11-01T11:15:00Z,27.2925,-90.9681,21.3,28.0,11111222
Anadarko,ioos:station:wmo:42377:2,2021-11-01T11:35:00Z,27.2925,-90.9681,21.3,27.4,11111222
Anadarko,ioos:station:wmo:42377:2,2021-11-01T11:55:00Z,27.2925,-90.9681,21.3,27.4,11111222
Anadarko,ioos:station:wmo:42377:2,2021-11-01T12:15:00Z,27.2925,-90.9681,21.3,27.9,11111222
Anadarko,ioos:station:wmo:42377:2,2021-11-01T12:35:00Z,27.2925,-90.9681,21.3,27.5,11111222
Anadarko,ioos:station:wmo:42377:2,2021-11-01T12:55:00Z,27.2925,-90.9681,21.3,28.2,11111222
Anadarko,ioos:station:wmo:42377:2,2021-11-01T13:15:00Z,27.2925,-90.9681,21.3,27.7,11111222
Anadarko,ioos:station:wmo:42377:2,2021-11-01T13:35:00Z,27.2925,-90.9681,21.3,27.6,11111222
Anadarko,ioos:station:wmo:42377:2,2021-11-01T13:55:00Z,27.2925,-90.9681,21.3,28.2,11111222
Anadarko,ioos:station:wmo:42377:2,2021-11-01T14:15:00Z,27.2925,-90.9681,21.3,27.9,11111222
Anadarko,ioos:station:wmo:42377:2,2021-11-01T14:35:00Z,27.2925,-90.9681,21.3,27.9,11111222
Anadarko,ioos:station:wmo:42377:2,2021-11-01T14:55:00Z,27.2925,-90.9681,21.3,28.3,11111222
Anadarko,ioos:station:wmo:42377:2,2021-11-01T15:15:00Z,27.2925,-90.9681,21.3,27.5,11111222
Anadarko,ioos:station:wmo:42377:2,2021-11-01T15:35:00Z,27.2925,-90.9681,21.3,28.1,11111222
Anadarko,ioos:station:wmo:42377:2,2021-11-01T15:55:00Z,27.2925,-90.9681,21.3,27.6,11111222
Anadarko,ioos:station:wmo:42377:2,2021-11-01T16:15:00Z,27.2925,-90.9681,21.3,28.1,11111222
Anadarko,ioos:station:wmo:42377:2,2021-11-01T16:35:00Z,27.2925,-90.9681,21.3,28.3,11111222
Anadarko,ioos:station:wmo:42377:2,2021-11-01T16:55:00Z,27.2925,-90.9681,21.3,27.6,11111222
Anadarko,ioos:station:wmo:42377:2,2021-11-01T17:15:00Z,27.2925,-90.9681,21.3,28.0,11111222
Anadarko,ioos:station:wmo:42377:2,2021-11-01T17:35:00Z,27.2925,-90.9681,21.3,28.1,11111222
Anadarko,ioos:station:wmo:42377:2,2021-11-01T17:55:00Z,27.2925,-90.9681,21.3,28.1,11111222
Anadarko,ioos:station:wmo:42377:2,2021-11-01T18:15:00Z,27.2925,-90.9681,21.3,28.4,11111222
Anadarko,ioos:station:wmo:42377:2,2021-11-01T18:35:00Z,27.2925,-90.9681,21.3,27.8,11111222
Anadarko,ioos:station:wmo:42377:2,2021-11-01T18:55:00Z,27.2925,-90.9681,21.3,27.6,11111222
Anadarko,ioos:station:wmo:42377:2,2021-11-01T19:15:00Z,27.2925,-90.9681,21.3,28.0,11111222
Anadarko,ioos:station:wmo:42377:2,2021-11-01T19:35:00Z,27.2925,-90.9681,21.3,28.2,11111222
Anadarko,ioos:station:wmo:42377:2,2021-11-01T19:55:00Z,27.2925,-90.9681,21.3,28.1,11111222
Anadarko,ioos:station:wmo:42377:2,2021-11-01T20:15:00Z,27.2925,-90.9681,21.3,28.4,11111222
Anadarko,ioos:station:wmo:42377:2,2021-11-01T20:35:00Z,27.2925,-90.9681,21.3,28.3,11111222
Anadarko,ioos:station:wmo:42377:2,2021-11-01T20:55:00Z,27.2925,-90.9681,21.3,28.1,11111222
Anadarko,ioos:station:wmo:42377:2,2021-11-01T21:15:00Z,27.2925,-90.9681,21.3,27.7,11111222
Anadarko,ioos:station:wmo:42377:2,2021-11-01T21:35:00Z,27.2925,-90.9681,21.3,28.2,11111222
Anadarko,ioos:station:wmo:42377:2,2021-11-01T21:55:00Z,27.2925,-90.9681,21.3,28.3,11111222
Anadarko,ioos:station:wmo:42377:2,2021-11-01T22:15:00Z,27.2925,-90.9681,21.3,28.3,11111222
Anadarko,ioos:station:wmo:42377:2,2021-11-01T22:35:00Z,27.2925,-90.9681,21.3,28.1,11111222
Anadarko,ioos:station:wmo:42377:2,2021-11-01T22:55:00Z,27.2925,-90.9681,21.3,27.6,11111222
Anadarko,ioos:station:wmo:42377:2,2021-11-01T23:15:00Z,27.2925,-90.9681,21.3,28.1,11111222
Anadarko,ioos:station:wmo:42377:2,2021-11-01T23:35:00Z,27.2925,-90.9681,21.3,27.5,11111222
Anadarko,ioos:station:wmo:42377:2,2021-11-01T23:55:00Z,27.2925,-90.9681,21.3,28.1,11111222
Anadarko,ioos:station:wmo:42377:2,2021-11-02T00:15:00Z,27.2925,-90.9681,21.3,27.6,11111222
Anadarko,ioos:station:wmo:42377:2,2021-11-02T00:35:00Z,27.2925,-90.9681,21.3,27.7,11111222
Anadarko,ioos:station:wmo:42377:2,2021-11-02T00:55:00Z,27.2925,-90.9681,21.3,28.1,11111222
Anadarko,ioos:station:wmo:42377:2,2021-11-02T01:15:00Z,27.2925,-90.9681,21.3,27.6,11111222
Anadarko,ioos:station:wmo:42377:2,2021-11-02T01:35:00Z,27.2925,-90.9681,21.3,28.1,11111222
Anadarko,ioos:station:wmo:42377:2,2021-11-02T01:55:00Z,27.2925,-90.9681,21.3,28.2,11111222
Anadarko,ioos:station:wmo:42377:2,2021-11-02T02:15:00Z,27.2925,-90.9681,21.3,27.6,11111222
Anadarko,ioos:station:wmo:42377:2,2021-11-02T02:35:00Z,27.2925,-90.9681,21.3,27.6,11111222
Anadarko,ioos:station:wmo:42377:2,2021-11-02T02:55:00Z,27.2925,-90.9681,21.3,27.6,11111222
Anadarko,ioos:station:wmo:42377:2,2021-11-02T03:15:00Z,27.2925,-90.9681,21.3,28.1,11111222
Anadarko,ioos:station:wmo:42377:2,2021-11-02T03:35:00Z,27.2925,-90.9681,21.3,28.2,11111222
Anadarko,ioos:station:wmo:42377:2,2021-11-02T03:55:00Z,27.2925,-90.9681,21.3,27.9,11111222
Anadarko,ioos:station:wmo:42377:2,2021-11-02T04:15:00Z,27.2925,-90.9681,21.3,28.2,11111222
Anadarko,ioos:station:wmo:42377:2,2021-11-02T04:35:00Z,27.2925,-90.9681,21.3,28.1,11111222
Anadarko,ioos:station:wmo:42377:2,2021-11-02T04:55:00Z,27.2925,-90.9681,21.3,27.7,11111222
Anadarko,ioos:station:wmo:42377:2,2021-11-02T05:15:00Z,27.2925,-90.9681,21.3,27.5,11111222
Anadarko,ioos:station:wmo:42377:2,2021-11-02T05:35:00Z,27.2925,-90.9681,21.3,27.6,11111222
Anadarko,ioos:station:wmo:42377:2,2021-11-02T05:55:00Z,27.2925,-90.9681,21.3,27.2,11111222
Anadarko,ioos:station:wmo:42377:2,2021-11-02T06:15:00Z,27.2925,-90.9681,21.3,27.5,11111222
Anadarko,ioos:station:wmo:42377:2,2021-11-02T06:35:00Z,27.2925,-90.9681,21.3,27.9,11111222
Anadarko,ioos:station:wmo:42377:2,2021-11-02T06:55:00Z,27.2925,-90.9681,21.3,27.3,11111222
Anadarko,ioos:station:wmo:42377:2,2021-11-02T07:15:00Z,27.2925,-90.9681,21.3,27.1,11111222
Anadarko,ioos:station:wmo:42377:2,2021-11-02T07:35:00Z,27.2925,-90.9681,21.3,27.1,11111222
Anadarko,ioos:station:wmo:42377:2,2021-11-02T07:55:00Z,27.2925,-90.9681,21.3,27.8,11111222
Anadarko,ioos:station:wmo:42377:2,2021-11-02T08:15:00Z,27.2925,-90.9681,21.3,27.5,11111222
Anadarko,ioos:station:wmo:42377:2,2021-11-02T08:35:00Z,27.2925,-90.9681,21.3,27.2,11111222
Anadarko,ioos:station:wmo:42377:2,2021-11-02T08:55:00Z,27.2925,-90.9681,21.3,26.9,11111222
Anadarko,ioos:station:wmo:42377:2,2021-11-02T09:15:00Z,27.2925,-90.9681,21.3,26.9,11111222
Anadarko,ioos:station:wmo:42377:2,2021-11-02T09:35:00Z,27.2925,-90.9681,21.3,27.6,11111222
Anadarko,ioos:station:wmo:42377:2,2021-11-02T09:55:00Z,27.2925,-90.9681,21.3,27.4,11111222
Anadarko,ioos:station:wmo:42377:2,2021-11-02T10:15:00Z,27.2925,-90.9681,21.3,26.9,11111222
Anadarko,ioos:station:wmo:42377:2,2021-11-02T10:35:00Z,27.2925,-90.9681,21.3,26.9,11111222
Anadarko,ioos:station:wmo:42377:2,2021-11-02T10:55:00Z,27.2925,-90.9681,21.3,27.4,11111222
Anadarko,ioos:station:wmo:42377:2,2021-11-02T11:15:00Z,27.2925,-90.9681,21.3,26.9,11111222
Anadarko,ioos:station:wmo:42377:2,2021-11-02T11:35:00Z,27.2925,-90.9681,21.3,27.3,11111222
Anadarko,ioos:station:wmo:42377:2,2021-11-02T11:55:00Z,27.2925,-90.9681,21.3,27.4,11111222
Anadarko,ioos:station:wmo:42377:2,2021-11-02T12:15:00Z,27.2925,-90.9681,21.3,26.9,11111222
Anadarko,ioos:station:wmo:42377:2,2021-11-02T12:35:00Z,27.2925,-90.9681,21.3,27.1,11111222
Anadarko,ioos:station:wmo:42377:2,2021-11-02T12:55:00Z,27.2925,-90.9681,21.3,27.0,11111222
Anadarko,ioos:station:wmo:42377:2,2021-11-02T13:15:00Z,27.2925,-90.9681,21.3,27.2,11111222
Anadarko,ioos:station:wmo:42377:2,2021-11-02T13:35:00Z,27.2925,-90.9681,21.3,27.4,11111222
Anadarko,ioos:station:wmo:42377:2,2021-11-02T13:55:00Z,27.2925,-90.9681,21.3,27.2,11111222
Anadarko,ioos:station:wmo:42377:2,2021-11-02T14:15:00Z,27.2925,-90.9681,21.3,27.5,11111222
Anadarko,ioos:station:wmo:42377:2,2021-11-02T14:35:00Z,27.2925,-90.9681,21.3,27.4,11111222
Anadarko,ioos:station:wmo:42377:2,2021-11-02T14:55:00Z,27.2925,-90.9681,21.3,27.4,11111222
Anadarko,ioos:station:wmo:42377:2,2021-11-02T15:15:00Z,27.2925,-90.9681,21.3,27.1,11111222
Anadarko,ioos:station:wmo:42377:2,2021-11-02T15:35:00Z,27.2925,-90.9681,21.3,27.2,11111222
Anadarko,ioos:station:wmo:42377:2,2021-11-02T15:55:00Z,27.2925,-90.9681,21.3,27.4,11111222
Anadarko,ioos:station:wmo:42377:2,2021-11-02T16:15:00Z,27.2925,-90.9681,21.3,27.8,11111222
Anadarko,ioos:station:wmo:42377:2,2021-11-02T16:35:00Z,27.2925,-90.9681,21.3,27.4,11111222
Anadarko,ioos:station:wmo:42377:2,2021-11-02T16:55:00Z,27.2925,-90.9681,21.3,27.3,11111222
Anadarko,ioos:station:wmo:42377:2,2021-11-02T17:15:00Z,27.2925,-90.9681,21.3,27.7,11111222
Anadarko,ioos:station:wmo:42377:2,2021-11-02T17:35:00Z,27.2925,-90.9681,21.3,27.9,11111222
Anadarko,ioos:station:wmo:42377:2,2021-11-02T17:55:00Z,27.2925,-90.9681,21.3,27.6,11111222
Anadarko,ioos:station:wmo:42377:2,2021-11-02T18:15:00Z,27.2925,-90.9681,21.3,27.9,11111222
Anadarko,ioos:station:wmo:42377:2,2021-11-02T18:35:00Z,27.2925,-90.9681,21.3,27.2,11111222
Anadarko,ioos:station:wmo:42377:2,2021-11-02T18:55:00Z,27.2925,-90.9681,21.3,27.2,11111222
Anadarko,ioos:station:wmo:42377:2,2021-11-02T19:15:00Z,27.2925,-90.9681,21.3,27.2,11111222
Anadarko,ioos:station:wmo:42377:2,2021-11-02T19:35:00Z,27.2925,-90.9681,21.3,27.2,11111222
Anadarko,ioos:station:wmo:42377:2,2021-11-02T19:55:00Z,27.2925,-90.9681,21.3,27.3,11111222
Anadarko,ioos:station:wmo:42377:2,2021-11-02T20:15:00Z,27.2925,-90.9681,21.3,27.8,11111222
Anadarko,ioos:station:wmo:42377:2,2021-11-02T20:35:00Z,27.2925,-90.9681,21.3,27.1,11111222
Anadarko,ioos:station:wmo:42377:2,2021-11-02T20:55:00Z,27.2925,-90.9681,21.3,27.4,11111222
Anadarko,ioos:station:wmo:42377:2,2021-11-02T21:15:00Z,27.2925,-90.9681,21.3,27.1,11111222
Anadarko,ioos:station:wmo:42377:2,2021-11-02T21:35:00Z,27.2925,-90.9681,21.3,27.3,11111222
Anadarko,ioos:station:wmo:42377:2,2021-11-02T21:55:00Z,27.2925,-90.9681,21.3,27.6,11111222
Anadarko,ioos:station:wmo:42377:2,2021-11-02T22:15:00Z,27.2925,-90.9681,21.3,27.5,11111222
Anadarko,ioos:station:wmo:42377:2,2021-11-02T22:35:00Z,27.2925,-90.9681,21.3,27.4,11111222
Anadarko,ioos:station:wmo:42377:2,2021-11-02T22:55:00Z,27.2925,-90.9681,21.3,27.8,11111222
Anadarko,ioos:station:wmo:42377:2,2021-11-02T23:15:00Z,27.2925,-90.9681,21.3,27.7,11111222
Anadarko,ioos:station:wmo:42377:2,2021-11-02T23:35:00Z,27.2925,-90.9681,21.3,28.0,11111222
Anadarko,ioos:station:wmo:42377:2,2021-11-02T23:55:00Z,27.2925,-90.9681,21.3,27.5,11111222
Anadarko,ioos:station:wmo:42377:2,2021-11-03T00:15:00Z,27.2925,-90.9681,21.3,27.6,11111222
Anadarko,ioos:station:wmo:42377:2,2021-11-03T00:35:00Z,27.2925,-90.9681,21.3,27.3,11111222
Anadarko,ioos:station:wmo:42377:2,2021-11-03T00:55:00Z,27.2925,-90.9681,21.3,27.4,11111222
Anadarko,ioos:station:wmo:42377:2,2021-11-03T01:15:00Z,27.2925,-90.9681,21.3,27.5,11111222
Anadarko,ioos:station:wmo:42377:2,2021-11-03T01:35:00Z,27.2925,-90.9681,21.3,27.8,11111222
Anadarko,ioos:station:wmo:42377:2,2021-11-03T01:55:00Z,27.2925,-90.9681,21.3,27.9,11111222
Anadarko,ioos:station:wmo:42377:2,2021-11-03T02:15:00Z,27.2925,-90.9681,21.3,27.4,11111222
Anadarko,ioos:station:wmo:42377:2,2021-11-03T02:35:00Z,27.2925,-90.9681,21.3,27.9,11111222
Anadarko,ioos:station:wmo:42377:2,2021-11-03T02:55:00Z,27.2925,-90.9681,21.3,27.1,11111222
Anadarko,ioos:station:wmo:42377:2,2021-11-03T03:15:00Z,27.2925,-90.9681,21.3,27.2,11111222
Anadarko,ioos:station:wmo:42377:2,2021-11-03T03:35:00Z,27.2925,-90.9681,21.3,27.1,11111222
Anadarko,ioos:station:wmo:42377:2,2021-11-03T03:55:00Z,27.2925,-90.9681,21.3,27.8,11111222
Anadarko,ioos:station:wmo:42377:2,2021-11-03T04:15:00Z,27.2925,-90.9681,21.3,27.3,11111222
Anadarko,ioos:station:wmo:42377:2,2021-11-03T04:35:00Z,27.2925,-90.9681,21.3,26.9,11111222
Anadarko,ioos:station:wmo:42377:2,2021-11-03T04:55:00Z,27.2925,-90.9681,21.3,26.9,11111222
Anadarko,ioos:station:wmo:42377:2,2021-11-03T05:15:00Z,27.2925,-90.9681,21.3,27.0,11111222
Anadarko,ioos:station:wmo:42377:2,2021-11-03T05:35:00Z,27.2925,-90.9681,21.3,26.9,11111222
Anadarko,ioos:station:wmo:42377:2,2021-11-03T05:55:00Z,27.2925,-90.9681,21.3,27.4,11111222
Anadarko,ioos:station:wmo:42377:2,2021-11-03T06:15:00Z,27.2925,-90.9681,21.3,27.1,11111222
Anadarko,ioos:station:wmo:42377:2,2021-11-03T06:35:00Z,27.2925,-90.9681,21.3,26.6,11111222
Anadarko,ioos:station:wmo:42377:2,2021-11-03T06:55:00Z,27.2925,-90.9681,21.3,27.3,11111222
Anadarko,ioos:station:wmo:42377:2,2021-11-03T07:15:00Z,27.2925,-90.9681,21.3,27.2,11111222
Anadarko,ioos:station:wmo:42377:2,2021-11-03T07:35:00Z,27.2925,-90.9681,21.3,26.9,11111222
Anadarko,ioos:station:wmo:42377:2,2021-11-03T07:55:00Z,27.2925,-90.9681,21.3,26.8,11111222
Anadarko,ioos:station:wmo:42377:2,2021-11-03T08:15:00Z,27.2925,-90.9681,21.3,27.3,11111222
Anadarko,ioos:station:wmo:42377:2,2021-11-03T08:35:00Z,27.2925,-90.9681,21.3,27.2,11111222
Anadarko,ioos:station:wmo:42377:2,2021-11-03T08:55:00Z,27.2925,-90.9681,21.3,27.2,11111222
Anadarko,ioos:station:wmo:42377:2,2021-11-03T09:15:00Z,27.2925,-90.9681,21.3,26.9,11111222
Anadarko,ioos:station:wmo:42377:2,2021-11-03T09:35:00Z,27.2925,-90.9681,21.3,26.6,11111222
Anadarko,ioos:station:wmo:42377:2,2021-11-03T09:55:00Z,27.2925,-90.9681,21.3,26.9,11111222
Anadarko,ioos:station:wmo:42377:2,2021-11-03T10:15:00Z,27.2925,-90.9681,21.3,27.1,11111222
Anadarko,ioos:station:wmo:42377:2,2021-11-03T10:35:00Z,27.2925,-90.9681,21.3,26.6,11111222
Anadarko,ioos:station:wmo:42377:2,2021-11-03T10:55:00Z,27.2925,-90.9681,21.3,26.9,11111222
Anadarko,ioos:station:wmo:42377:2,2021-11-03T11:15:00Z,27.2925,-90.9681,21.3,26.6,11111222
Anadarko,ioos:station:wmo:42377:2,2021-11-03T11:35:00Z,27.2925,-90.9681,21.3,27.2,11111222
Anadarko,ioos:station:wmo:42377:2,2021-11-03T11:55:00Z,27.2925,-90.9681,21.3,27.1,11111222
Anadarko,ioos:station:wmo:42377:2,2021-11-03T12:15:00Z,27.2925,-90.9681,21.3,26.5,11111222
Anadarko,ioos:station:wmo:42377:2,2021-11-03T12:57:00Z,27.2925,-90.9681,21.3,27.1,11111222
Anadarko,ioos:station:wmo:42377:2,2021-11-03T13:17:00Z,27.2925,-90.9681,21.3,27.2,11111222
Anadarko,ioos:station:wmo:42377:2,2021-11-03T13:44:00Z,27.2925,-90.9681,21.3,27.2,11111222
Anadarko,ioos:station:wmo:42377:2,2021-11-03T14:04:00Z,27.2925,-90.9681,21.3,27.3,11111222
Anadarko,ioos:station:wmo:42377:2,2021-11-03T14:24:00Z,27.2925,-90.9681,21.3,27.3,11111222
Anadarko,ioos:station:wmo:42377:2,2021-11-03T14:44:00Z,27.2925,-90.9681,21.3,27.2,11111222
Anadarko,ioos:station:wmo:42377:2,2021-11-03T15:04:00Z,27.2925,-90.9681,21.3,27.3,11111222
Anadarko,ioos:station:wmo:42377:2,2021-11-03T15:24:00Z,27.2925,-90.9681,21.3,27.4,11111222
Anadarko,ioos:station:wmo:42377:2,2021-11-03T15:44:00Z,27.2925,-90.9681,21.3,27.1,11111222
Anadarko,ioos:station:wmo:42377:2,2021-11-03T16:04:00Z,27.2925,-90.9681,21.3,27.0,11111222
Anadarko,ioos:station:wmo:42377:2,2021-11-03T16:24:00Z,27.2925,-90.9681,21.3,27.0,11111222
Anadarko,ioos:station:wmo:42377:2,2021-11-03T16:44:00Z,27.2925,-90.9681,21.3,27.6,11111222
Anadarko,ioos:station:wmo:42377:2,2021-11-03T17:04:00Z,27.2925,-90.9681,21.3,27.5,11111222
Anadarko,ioos:station:wmo:42377:2,2021-11-03T17:24:00Z,27.2925,-90.9681,21.3,26.9,11111222
Anadarko,ioos:station:wmo:42377:2,2021-11-03T17:44:00Z,27.2925,-90.9681,21.3,27.6,11111222
Anadarko,ioos:station:wmo:42377:2,2021-11-03T18:04:00Z,27.2925,-90.9681,21.3,27.6,11111222
Anadarko,ioos:station:wmo:42377:2,2021-11-03T18:24:00Z,27.2925,-90.9681,21.3,27.4,11111222
Anadarko,ioos:station:wmo:42377:2,2021-11-03T18:44:00Z,27.2925,-90.9681,21.3,27.6,11111222
Anadarko,ioos:station:wmo:42377:2,2021-11-03T19:04:00Z,27.2925,-90.9681,21.3,27.4,11111222
Anadarko,ioos:station:wmo:42377:2,2021-11-03T19:24:00Z,27.2925,-90.9681,21.3,27.6,11111222
Anadarko,ioos:station:wmo:42377:2,2021-11-03T19:44:00Z,27.2925,-90.9681,21.3,27.5,11111222
Anadarko,ioos:station:wmo:42377:2,2021-11-03T20:04:00Z,27.2925,-90.9681,21.3,27.1,11111222
Anadarko,ioos:station:wmo:42377:2,2021-11-03T20:24:00Z,27.2925,-90.9681,21.3,27.0,11111222
Anadarko,ioos:station:wmo:42377:2,2021-11-03T20:44:00Z,27.2925,-90.9681,21.3,27.1,11111222
Anadarko,ioos:station:wmo:42377:2,2021-11-03T21:04:00Z,27.2925,-90.9681,21.3,27.0,11111222
Anadarko,ioos:station:wmo:42377:2,2021-11-03T21:24:00Z,27.2925,-90.9681,21.3,27.6,11111222
Anadarko,ioos:station:wmo:42377:2,2021-11-03T21:44:00Z,27.2925,-90.9681,21.3,27.4,11111222
Anadarko,ioos:station:wmo:42377:2,2021-11-03T22:04:00Z,27.2925,-90.9681,21.3,27.0,11111222
Anadarko,ioos:station:wmo:42377:2,2021-11-03T22:24:00Z,27.2925,-90.9681,21.3,27.3,11111222
Anadarko,ioos:station:wmo:42377:2,2021-11-03T22:44:00Z,27.2925,-90.9681,21.3,27.6,11111222
Anadarko,ioos:station:wmo:42377:2,2021-11-03T23:04:00Z,27.2925,-90.9681,21.3,26.9,11111222
Anadarko,ioos:station:wmo:42377:2,2021-11-03T23:24:00Z,27.2925,-90.9681,21.3,27.5,11111222
Anadarko,ioos:station:wmo:42377:2,2021-11-03T23:44:00Z,27.2925,-90.9681,21.3,27.3,11111222
Anadarko,ioos:station:wmo:42377:2,2021-11-04T00:04:00Z,27.2925,-90.9681,21.3,27.1,11111222
Anadarko,ioos:station:wmo:42377:2,2021-11-04T00:24:00Z,27.2925,-90.9681,21.3,26.8,11111222
Anadarko,ioos:station:wmo:42377:2,2021-11-04T00:44:00Z,27.2925,-90.9681,21.3,27.4,11111222
Anadarko,ioos:station:wmo:42377:2,2021-11-04T01:04:00Z,27.2925,-90.9681,21.3,27.2,11111222
Anadarko,ioos:station:wmo:42377:2,2021-11-04T01:24:00Z,27.2925,-90.9681,21.3,26.9,11111222
Anadarko,ioos:station:wmo:42377:2,2021-11-04T01:44:00Z,27.2925,-90.9681,21.3,27.4,11111222
Anadarko,ioos:station:wmo:42377:2,2021-11-04T02:04:00Z,27.2925,-90.9681,21.3,26.8,11111222
Anadarko,ioos:station:wmo:42377:2,2021-11-04T02:24:00Z,27.2925,-90.9681,21.3,27.4,11111222
Anadarko,ioos:station:wmo:42377:2,2021-11-04T02:44:00Z,27.2925,-90.9681,21.3,27.5,11111222
Anadarko,ioos:station:wmo:42377:2,2021-11-04T03:04:00Z,27.2925,-90.9681,21.3,26.7,11111222
Anadarko,ioos:station:wmo:42377:2,2021-11-04T03:24:00Z,27.2925,-90.9681,21.3,26.8,11111222
Anadarko,ioos:station:wmo:42377:2,2021-11-04T03:44:00Z,27.2925,-90.9681,21.3,26.8,11111222
Anadarko,ioos:station:wmo:42377:2,2021-11-04T04:04:00Z,27.2925,-90.9681,21.3,27.4,11111222
Anadarko,ioos:station:wmo:42377:2,2021-11-04T04:24:00Z,27.2925,-90.9681,21.3,27.4,11111222
Anadarko,ioos:station:wmo:42377:2,2021-11-04T04:44:00Z,27.2925,-90.9681,21.3,27.2,11111222
Anadarko,ioos:station:wmo:42377:2,2021-11-04T05:04:00Z,27.2925,-90.9681,21.3,27.4,11111222
Anadarko,ioos:station:wmo:42377:2,2021-11-04T05:24:00Z,27.2925,-90.9681,21.3,26.7,11111222
Anadarko,ioos:station:wmo:42377:2,2021-11-04T05:44:00Z,27.2925,-90.9681,21.3,27.1,11111222
Anadarko,ioos:station:wmo:42377:2,2021-11-04T06:04:00Z,27.2925,-90.9681,21.3,26.7,11111222
Anadarko,ioos:station:wmo:42377:2,2021-11-04T06:24:00Z,27.2925,-90.9681,21.3,27.2,11111222
Anadarko,ioos:station:wmo:42377:2,2021-11-04T06:44:00Z,27.2925,-90.9681,21.3,26.4,11111222
Anadarko,ioos:station:wmo:42377:2,2021-11-04T07:04:00Z,27.2925,-90.9681,21.3,26.6,11111222
Anadarko,ioos:station:wmo:42377:2,2021-11-04T07:24:00Z,27.2925,-90.9681,21.3,27.0,11111222
Anadarko,ioos:station:wmo:42377:2,2021-11-04T07:44:00Z,27.2925,-90.9681,21.3,26.9,11111222
Anadarko,ioos:station:wmo:42377:2,2021-11-04T08:04:00Z,27.2925,-90.9681,21.3,26.4,11111222
Anadarko,ioos:station:wmo:42377:2,2021-11-04T08:24:00Z,27.2925,-90.9681,21.3,26.7,11111222
Anadarko,ioos:station:wmo:42377:2,2021-11-04T08:44:00Z,27.2925,-90.9681,21.3,27.1,11111222
Anadarko,ioos:station:wmo:42377:2,2021-11-04T09:04:00Z,27.2925,-90.9681,21.3,26.4,11111222
Anadarko,ioos:station:wmo:42377:2,2021-11-04T09:24:00Z,27.2925,-90.9681,21.3,26.4,11111222
Anadarko,ioos:station:wmo:42377:2,2021-11-04T09:44:00Z,27.2925,-90.9681,21.3,27.0,11111222
Anadarko,ioos:station:wmo:42377:2,2021-11-04T10:04:00Z,27.2925,-90.9681,21.3,27.1,11111222
Anadarko,ioos:station:wmo:42377:2,2021-11-04T10:24:00Z,27.2925,-90.9681,21.3,26.4,11111222
Anadarko,ioos:station:wmo:42377:2,2021-11-04T10:44:00Z,27.2925,-90.9681,21.3,26.4,11111222
Anadarko,ioos:station:wmo:42377:2,2021-11-04T11:04:00Z,27.2925,-90.9681,21.3,26.4,11111222
Anadarko,ioos:station:wmo:42377:2,2021-11-04T11:24:00Z,27.2925,-90.9681,21.3,26.9,11111222
Anadarko,ioos:station:wmo:42377:2,2021-11-04T11:44:00Z,27.2925,-90.9681,21.3,26.4,11111222
Anadarko,ioos:station:wmo:42377:2,2021-11-04T12:04:00Z,27.2925,-90.9681,21.3,27.1,11111222
Anadarko,ioos:station:wmo:42377:2,2021-11-04T12:24:00Z,27.2925,-90.9681,21.3,27.0,11111222
Anadarko,ioos:station:wmo:42377:2,2021-11-04T12:44:00Z,27.2925,-90.9681,21.3,26.6,11111222
Anadarko,ioos:station:wmo:42377:2,2021-11-04T13:04:00Z,27.2925,-90.9681,21.3,26.4,11111222
Anadarko,ioos:station:wmo:42377:2,2021-11-04T13:24:00Z,27.2925,-90.9681,21.3,27.0,11111222
Anadarko,ioos:station:wmo:42377:2,2021-11-04T13:44:00Z,27.2925,-90.9681,21.3,26.8,11111222
Anadarko,ioos:station:wmo:42377:2,2021-11-04T14:04:00Z,27.2925,-90.9681,21.3,26.6,11111222
Anadarko,ioos:station:wmo:42377:2,2021-11-04T14:24:00Z,27.2925,-90.9681,21.3,26.3,11111222
Anadarko,ioos:station:wmo:42377:2,2021-11-04T14:44:00Z,27.2925,-90.9681,21.3,26.2,11111222